[[{"header":{"parameterUnit":"m.s-1","parameterCategory":1,"la1":30.2991,"la2":30.254,"lo1":-89.0895,"lo2":-89.0444,"dy":0.0017,"dx":0.0017,"nx":28,"ny":28,"refTime":"2023-08-25T03:00:00:Z","depth":0,"parameterNumber":2,"parameterNumberName":"U-component_of_WINDS"},"data":[0,0,0,0,0,0,0,0,0,0,0,0,0,0,0,0,0,0,0,0,0,0,0,0,0,0,0,0,0,0,0,0,0,0,0,0,0,0,0,0,0,0,0,0,0,0,0,0,0,0,0,0,0,0,0,0,0,0,1.7784,1.7785,0,1.7924,1.7926,1.7927,1.7982,1.7981,1.7981,1.7981,1.8123,1.8127,1.8131,0,0,0,0,0,0,0,0,0,0,0,0,0,1.756,1.7564,1.7784,1.7785,1.7787,1.7924,1.7926,1.7928,1.7982,1.7981,1.7981,1.7981,1.8122,1.8127,1.8132,0,0,0,0,0,0,0,0,0,0,0,0,0,1.7674,1.7565,1.7783,1.7831,1.7836,1.7924,1.7926,1.7928,1.7982,1.7981,1.7981,1.798,1.812,1.8126,1.8132,1.8183,0,0,1.8152,1.8154,0,0,0,0,0,0,0,0,1.7668,1.7682,1.7822,1.7828,1.7834,1.7935,1.7899,1.8014,1.7982,1.7927,1.7981,1.798,1.8061,1.8072,1.81,1.8189,1.8195,1.8152,1.8156,1.8159,1.816,0,0,0,0,0,0,0,1.766,1.7677,1.7839,1.7824,1.7831,1.7844,1.786,1.7921,1.7995,1.7931,1.7936,1.7952,1.8064,1.8093,1.8103,1.8198,1.8152,1.8157,1.8161,1.8164,1.8334,1.8335,0,0,0,0,0,0,1.7644,1.767,1.7835,1.7843,1.7748,1.7849,1.7866,1.7903,1.7995,1.8008,1.7952,1.7954,1.8083,1.8096,1.8109,1.8173,1.8158,1.8164,1.8168,1.8333,1.8334,1.8335,0,0,0,0,0,0,1.7639,1.7658,1.7829,1.7758,1.7781,1.7853,1.7894,1.7906,1.7936,1.801,1.8024,1.7969,1.8083,1.81,1.8164,1.8178,1.8167,1.8173,1.8332,1.8334,1.8335,1.8301,0,0,0,0,0,0,1.7632,1.7656,1.7677,1.7758,1.7784,1.7882,1.7895,1.7909,1.7946,1.795,1.8029,1.8042,1.8084,1.8154,1.817,1.8187,1.8178,1.8331,1.8333,1.8334,1.8302,1.8301,1.8301,0,0,0,0,0,1.7624,1.7662,1.7677,1.7697,1.7811,1.7883,1.7898,1.7946,1.7947,1.7968,1.8016,1.804,1.8174,1.816,1.8178,1.8197,1.8331,1.8333,1.8334,1.8302,1.8301,1.8301,0,0,0,0,0,0,1.758,1.7673,1.7692,1.7757,1.7811,1.7892,1.792,1.7944,1.8,1.8001,1.8057,1.8075,1.8134,1.8172,1.8155,1.825,1.8254,1.826,1.8223,1.8223,1.8223,1.8213,1.8183,0,0,0,0,0,1.7577,1.7629,1.7707,1.7757,1.7784,1.7847,1.788,1.7912,1.7971,1.7994,1.8047,1.8103,1.8158,1.8193,1.8248,1.8307,1.8325,1.8329,1.8329,1.8329,1.8333,1.8366,1.8369,1.8341,1.8341,1.8341,0,0,1.7573,1.7631,1.766,1.7749,1.7796,1.7847,1.7866,1.7919,1.7957,1.8002,1.8066,1.8106,1.8172,1.8234,1.8264,1.8268,1.8344,1.8331,1.833,1.8334,1.8368,1.8371,1.8373,1.8342,1.8342,1.8342,0,0,1.7592,1.7641,1.7687,1.7733,1.7803,1.7845,1.7856,1.7933,1.7961,1.8026,1.806,1.8106,1.82,1.8245,1.828,1.8315,1.8338,1.8331,1.833,1.8362,1.8364,1.8366,1.8378,1.8381,1.8335,1.8335,1.8335,0,1.7578,1.7657,1.7707,1.7759,1.7797,1.784,1.7887,1.7929,1.8013,1.8038,1.8041,1.8159,1.8206,1.8279,1.8287,1.8314,1.8328,1.8322,1.836,1.8362,1.8365,1.8377,1.8381,1.8333,1.8333,1.8334,1.8334,0,1.7635,1.7689,1.7718,1.7798,1.784,1.7888,1.7946,1.7981,1.8009,1.805,1.8115,1.8173,1.824,1.826,1.8288,1.8336,1.8336,1.8349,1.8354,1.8366,1.8378,1.8383,1.8331,1.8332,1.8332,1.8333,0,0,1.763,1.7737,1.7747,1.7784,1.7864,1.7906,1.7956,1.8022,1.8051,1.8107,1.815,1.8227,1.8239,1.8279,1.8313,1.8341,1.8363,1.835,1.8353,1.835,1.8419,1.8409,1.8413,1.8379,1.8381,1.8381,1.8413,0,1.7658,1.7751,1.7798,1.787,1.792,1.7961,1.8004,1.8058,1.8097,1.8144,1.8188,1.8242,1.8254,1.8278,1.8308,1.8354,1.8378,1.8353,1.8419,1.8421,1.8401,1.842,1.8409,1.8437,1.8418,1.8419,1.842,0,1.7704,1.776,1.7837,1.7911,1.7934,1.7972,1.8035,1.8081,1.8141,1.8168,1.8212,1.8244,1.8298,1.8299,1.8373,1.8354,1.8384,1.8411,1.8413,1.8421,1.8421,1.8428,1.8447,1.8451,1.8428,1.8427,1.8427,0,1.7692,1.7786,1.7845,1.7875,1.7962,1.7988,1.8025,1.8086,1.8122,1.8177,1.8201,1.8261,1.8294,1.834,1.8388,1.8384,1.8457,1.8462,1.848,1.8478,1.8493,1.8491,1.8517,1.8512,1.8512,1.8512,1.8512,0,1.7719,1.7764,1.784,1.7876,1.7927,1.798,1.8029,1.807,1.8123,1.8166,1.8206,1.8245,1.8306,1.8354,1.8391,1.8446,1.8461,1.8483,1.8493,1.848,1.8477,1.85,1.8499,1.8513,1.8513,1.8513,1.8513,0,1.7713,1.7766,1.7832,1.791,1.793,1.7964,1.803,1.8066,1.8107,1.8161,1.8177,1.8241,1.8299,1.8351,1.8427,1.8453,1.8508,1.852,1.8488,1.8493,1.8508,1.8505,1.8549,1.8557,1.8547,1.8547,1.8547,0,1.7727,1.7763,1.7844,1.7876,1.7913,1.7964,1.8001,1.8054,1.8091,1.8163,1.8189,1.825,1.8301,1.8391,1.8444,1.8502,1.8516,1.8527,1.8525,1.851,1.8516,1.8513,1.8516,1.8526,1.8526,1.8526,1.8526,0,1.7745,1.7769,1.7822,1.7883,1.7926,1.7977,1.8029,1.8053,1.8116,1.8155,1.8214,1.8254,1.8332,1.8391,1.8455,1.8493,1.852,1.8526,1.8533,1.852,1.85,1.8511,1.8486,1.8525,1.8525,1.8525,1.8525,1.8525,1.775,1.7783,1.7845,1.7902,1.7947,1.7994,1.8031,1.8077,1.8127,1.8195,1.8223,1.8283,1.8342,1.8431,1.8469,1.8516,1.8521,1.8532,1.8534,1.8536,1.8533,1.8492,1.8528,1.8528,1.8528,1.8528,1.8528,0,1.7769,1.7811,1.7863,1.7934,1.7979,1.8,1.8059,1.8094,1.8147,1.82,1.8249,1.8317,1.8374,1.8432,1.8492,1.8519,1.8532,1.8533,1.8531,1.8539,1.8525,1.8513,1.8521,1.8521,1.8521,1.8521,1.8521,1.8521,1.7785,1.7842,1.7874,1.7953,1.7995,1.8054,1.8086,1.8129,1.8172,1.8246,1.8294,1.8331,1.8386,1.845,1.8503,1.8519,1.8539,1.8536,1.8554,1.854,1.854,1.854,1.8529,1.854,1.854,1.8564,1.8564,1.8565]},{"header":{"parameterUnit":"m.s-1","parameterCategory":1,"la1":30.2991,"la2":30.254,"lo1":-89.0895,"lo2":-89.0444,"dy":0.0017,"dx":0.0017,"nx":28,"ny":28,"refTime":"2023-08-25T03:00:00:Z","depth":0,"parameterNumber":3,"parameterNumberName":"V-component_of_WINDS"},"data":[0,0,0,0,0,0,0,0,0,0,0,0,0,0,0,0,0,0,0,0,0,0,0,0,0,0,0,0,0,0,0,0,0,0,0,0,0,0,0,0,0,0,0,0,0,0,0,0,0,0,0,0,0,0,0,0,0,0,4.2509,4.2509,0,4.2454,4.2454,4.2453,4.2391,4.239,4.2389,4.2388,4.2327,4.2327,4.2326,0,0,0,0,0,0,0,0,0,0,0,0,0,4.2558,4.2558,4.2509,4.2509,4.2508,4.2454,4.2454,4.2453,4.2391,4.239,4.2389,4.2388,4.2328,4.2327,4.2326,0,0,0,0,0,0,0,0,0,0,0,0,0,4.2523,4.2558,4.251,4.2471,4.2467,4.2454,4.2453,4.2453,4.2391,4.239,4.2388,4.2387,4.2328,4.2327,4.2326,4.2346,0,0,4.2322,4.2322,0,0,0,0,0,0,0,0,4.2525,4.2522,4.2477,4.2473,4.2469,4.2428,4.2448,4.2417,4.2392,4.242,4.2388,4.2387,4.2362,4.2358,4.235,4.2343,4.234,4.2322,4.2321,4.2321,4.2321,0,0,0,0,0,0,0,4.2528,4.2524,4.2487,4.2477,4.2472,4.2455,4.2449,4.2442,4.2399,4.2417,4.2413,4.2407,4.2359,4.2351,4.2348,4.2339,4.2322,4.2321,4.232,4.232,4.2346,4.2347,0,0,0,0,0,0,4.2537,4.2526,4.2489,4.2486,4.2495,4.2455,4.2448,4.2442,4.2399,4.2391,4.2408,4.2404,4.2354,4.235,4.2346,4.2366,4.2321,4.232,4.2319,4.2344,4.2346,4.2348,0,0,0,0,0,0,4.2538,4.2534,4.2491,4.2505,4.2498,4.2456,4.245,4.2442,4.2434,4.2392,4.2384,4.2409,4.2353,4.2348,4.2347,4.2363,4.2319,4.2318,4.2343,4.2345,4.2347,4.2408,0,0,0,0,0,0,4.254,4.2535,4.2543,4.2505,4.2498,4.2494,4.2451,4.2442,4.2433,4.2427,4.239,4.2383,4.2351,4.2349,4.2345,4.2361,4.2317,4.2341,4.2344,4.2346,4.2404,4.2412,4.2418,0,0,0,0,0,4.2542,4.2561,4.2543,4.2539,4.2507,4.2495,4.2491,4.2455,4.2435,4.2442,4.2415,4.2384,4.2363,4.2349,4.2345,4.236,4.234,4.2343,4.2346,4.2401,4.241,4.2418,0,0,0,0,0,0,4.26,4.2555,4.2535,4.2544,4.2524,4.2485,4.2493,4.2466,4.2451,4.2446,4.2402,4.2394,4.2398,4.2379,4.2365,4.2378,4.2347,4.2349,4.239,4.2398,4.2405,4.2409,4.2316,0,0,0,0,0,4.2614,4.2609,4.257,4.2581,4.2573,4.2535,4.2528,4.2503,4.248,4.2471,4.2444,4.2422,4.241,4.2403,4.239,4.2401,4.2392,4.241,4.2417,4.2423,4.2425,4.243,4.2437,4.2358,4.2358,4.2358,0,0,4.2642,4.2618,4.2617,4.2593,4.2574,4.257,4.2528,4.2525,4.252,4.247,4.2468,4.2448,4.242,4.2426,4.2426,4.241,4.2446,4.2427,4.2432,4.2431,4.2434,4.2442,4.2448,4.236,4.2359,4.2359,0,0,4.2692,4.2673,4.268,4.2663,4.2637,4.2611,4.2614,4.2579,4.2564,4.2561,4.2524,4.2517,4.2498,4.248,4.2469,4.2513,4.2484,4.251,4.2546,4.2551,4.2558,4.2563,4.2578,4.2584,4.2512,4.2513,4.2513,0,4.273,4.2722,4.2687,4.2686,4.2676,4.2633,4.2639,4.2624,4.2594,4.2588,4.257,4.2546,4.2524,4.2525,4.2536,4.2528,4.2528,4.2513,4.256,4.2565,4.2569,4.2583,4.2589,4.2516,4.2516,4.2515,4.2515,0,4.2771,4.2766,4.2775,4.2749,4.274,4.2743,4.2707,4.2702,4.2679,4.2655,4.2653,4.2626,4.2607,4.2605,4.2581,4.2602,4.2593,4.2568,4.2536,4.2581,4.2593,4.2599,4.2521,4.252,4.2519,4.2518,0,0,4.2853,4.2809,4.2813,4.2801,4.2769,4.2764,4.2766,4.2748,4.2745,4.2726,4.2725,4.2711,4.2688,4.2675,4.2649,4.2653,4.269,4.2628,4.2626,4.264,4.2712,4.273,4.2737,4.2671,4.2672,4.2673,4.2714,0,4.2897,4.2897,4.2865,4.2874,4.2869,4.2828,4.2829,4.281,4.2788,4.278,4.2755,4.2746,4.2717,4.2709,4.2712,4.2685,4.2704,4.2682,4.2669,4.2669,4.2676,4.2744,4.2763,4.2803,4.2719,4.2719,4.272,0,4.2947,4.2933,4.2941,4.291,4.2907,4.2909,4.289,4.2884,4.2861,4.2844,4.2831,4.2802,4.2799,4.277,4.2766,4.2752,4.2745,4.2731,4.2732,4.2728,4.2696,4.2741,4.2815,4.2821,4.2727,4.2727,4.2726,0,4.3006,4.2989,4.2992,4.2983,4.2947,4.2949,4.2934,4.2909,4.2901,4.2885,4.2879,4.2863,4.2854,4.2841,4.2808,4.279,4.2808,4.2776,4.2793,4.2794,4.2798,4.2798,4.2871,4.2795,4.2795,4.2795,4.2795,0,4.3057,4.3063,4.3018,4.302,4.3027,4.299,4.2997,4.2978,4.2957,4.2953,4.2917,4.2914,4.2871,4.2863,4.2837,4.2838,4.2834,4.282,4.2813,4.2823,4.2824,4.2816,4.2813,4.2796,4.2796,4.2796,4.2796,0,4.3123,4.3093,4.3094,4.3061,4.3052,4.3058,4.3029,4.3029,4.3006,4.3002,4.2999,4.2962,4.2952,4.2918,4.2898,4.288,4.2888,4.2875,4.2897,4.2892,4.2911,4.291,4.2981,4.2988,4.2909,4.291,4.291,0,4.3157,4.3162,4.3129,4.3125,4.3112,4.3106,4.3098,4.3063,4.3056,4.303,4.3033,4.302,4.3007,4.2992,4.2962,4.2947,4.2933,4.2959,4.293,4.294,4.2932,4.2932,4.2932,4.2965,4.2966,4.2966,4.2967,0,4.3221,4.3206,4.3197,4.3183,4.3175,4.3162,4.3146,4.3145,4.3105,4.3099,4.3089,4.3079,4.306,4.3047,4.3027,4.301,4.2982,4.2977,4.298,4.299,4.3002,4.2995,4.2913,4.2975,4.2974,4.2974,4.2973,4.2973,4.3271,4.3274,4.3252,4.3243,4.3228,4.3215,4.3213,4.3191,4.3182,4.3164,4.3144,4.3136,4.3112,4.3084,4.3069,4.3061,4.3046,4.3051,4.3052,4.3053,4.3058,4.3004,4.3057,4.3057,4.3057,4.3057,4.3057,0,4.3332,4.3317,4.3309,4.3289,4.3282,4.3259,4.3241,4.3236,4.323,4.3211,4.32,4.3188,4.3176,4.3147,4.3131,4.3131,4.3117,4.3128,4.3127,4.3123,4.3072,4.3071,4.3139,4.3139,4.3139,4.3139,4.3139,4.3139,4.3363,4.3366,4.3349,4.3344,4.3328,4.3321,4.3312,4.33,4.3285,4.3274,4.3264,4.3246,4.3223,4.3206,4.3193,4.3184,4.318,4.3195,4.3182,4.3135,4.3127,4.3119,4.3118,4.3194,4.3194,4.3233,4.3233,4.3234]}]]